Weather Roundup
Issued by NWS Springfield, MO

Home | Current Version | Previous Version | Text Only | Print | Product List | Glossary On
Versions: 1 2 3 4 5 6 7 8 9 10 11 12 13 14 15 16 17 18 19 20 21 22 23 24 25 26 27 28 29 30 31 32 33 34 35 36 37 38 39 40 41 42 43 44 45 46 47 48 49 50
000
NZUS99 KSGF 261057
HRRSGF

HOURLY WEATHER
NATIONAL WEATHER SERVICE SPRINGFIELD MO
600 AM CDT THU MAY 26 2016

......SGF CWA......

CITY           SKY/WX    TMP DP  RH WIND       PRES   REMARKS
SPRINGFIELD    CLOUDY    71  68  90 S9        29.93R
JOPLIN         PTCLDY    74  71  91 S8        29.90R
WEST PLAINS    CLOUDY    73  69  87 SW5       29.99R
ROLLA          CLOUDY    72  70  93 S12       29.93R THUNDER

......SURROUNDING SGF CWA......

CITY           SKY/WX    TMP DP  RH WIND       PRES   REMARKS
CHANUTE        CLOUDY    75  72  90 S6        29.88R FOG
PARSONS        CLOUDY    77  74  90 S6        29.88R
COFFEYVILLE    CLOUDY    76  73  91 S6        29.87R
EMPORIA        CLEAR     72  70  93 SE10      29.85S
HARRISON AR    PTCLDY    71  70  96 SE3       29.96R

......KANSAS AND MISSOURI......

CITY           SKY/WX    TMP DP  RH WIND       PRES   REMARKS
KANSAS CTY INT CLOUDY    64  61  90 CALM      29.89R
DOWNTOWN KC    CLOUDY    66  61  82 SW7       29.86F
SEDALIA        MOCLDY    65  62  90 NW3       29.90F
ST JOSEPH      CLOUDY    63  60  90 CALM      29.87S
ST LOUIS       CLOUDY    72  67  84 S7        29.92S
WICHITA        CLOUDY    75  71  87 N5        29.83S
TOPEKA         CLOUDY    68  63  84 E3        29.87S
OLATHE         CLOUDY    61  59  93 S5        29.88F

......TENNESSEE......

CITY           SKY/WX    TMP DP  RH WIND       PRES   REMARKS
MEMPHIS        NOT AVBL
NASHVILLE      MOCLDY    66  62  87 S5        30.11S

......ARKANSAS.......

CITY           SKY/WX    TMP DP  RH WIND       PRES   REMARKS
FAYETTEVILLE   MOCLDY    74  73  97 S12G17    29.94R
FT SMITH       PTCLDY    73  70  90 CALM      29.92S
LITTLE ROCK    CLOUDY    77  72  84 S12       29.99R

......OKLAHOMA.......

CITY           SKY/WX    TMP DP  RH WIND       PRES   REMARKS
TULSA          CLOUDY    79  74  84 S13       29.85S
PONCA CITY     CLEAR     76  72  87 S7        29.82F
MCALESTER      CLOUDY    78  72  81 S12G17    29.93R
OKLAHOMA CITY  CLOUDY    77  74  90 S15       29.86S

......IOWA............

CITY           SKY/WX    TMP DP  RH WIND       PRES   REMARKS
DES MOINES     NOT AVBL
QUAD CITIES    CLOUDY    72  65  78 SW8       29.89R

......ILLINOIS........

CITY           SKY/WX    TMP DP  RH WIND       PRES   REMARKS
QUINCY         TSTM      65  64  97 E10       29.92F
CHICAGO        MOCLDY    68  66  93 SW10      29.91R



USA.gov is the U.S. government's official web portal to all federal, state and local government web resources and services.